Wind_Speed
16 15 15 17 17 16 18 19 21 22 24 23 22 23 22 22 21 21 21 21 20 20 21 22 21 21 21 21 22 22 21 21 22 22 22 21 20 20 20 20 20 19 18 18
16 16 16 17 18 18 19 20 21 22 23 22 23 23 23 22 21 19 19 20 19 20 20 20 20 20 20 20 21 20 20 21 22 22 21 20 19 19 18 18 18 17 17 17
16 16 17 18 18 18 19 19 20 22 23 24 24 22 22 21 20 20 18 18 18 18 18 18 19 19 20 19 19 19 20 20 21 20 19 17 17 18 17 17 17 17 16 17
17 17 19 17 16 18 18 19 20 21 22 23 23 22 21 20 19 18 17 17 17 17 17 18 18 18 17 17 18 19 19 20 20 18 17 16 16 15 15 16 16 16 16 16
18 19 19 18 17 18 19 20 21 21 20 21 21 21 20 18 18 17 16 16 16 17 16 17 17 17 17 17 18 17 18 18 18 17 16 15 15 15 14 14 14 14 14 14
19 20 22 18 19 18 19 20 20 19 19 19 19 19 18 17 16 15 15 15 16 16 15 15 14 15 16 16 16 16 16 17 16 15 15 14 14 14 13 13 13 13 14 14
20 21 21 18 18 19 20 20 19 18 18 18 17 17 17 16 15 14 14 14 13 13 13 13 13 13 14 14 13 14 14 15 15 14 14 14 13 12 12 12 12 13 13 13
20 20 18 17 17 19 19 19 19 18 17 16 16 15 14 14 14 13 12 12 12 12 12 12 12 12 11 11 11 12 13 14 14 13 13 12 11 11 12 12 12 12 13 13
20 19 17 16 18 19 19 18 17 16 16 15 15 14 13 12 12 12 11 10 11 11 11 11 10 10 10 10 11 12 12 13 13 12 12 12 12 12 12 12 12 13 13 13
21 19 19 18 18 18 17 17 16 15 14 13 13 12 11 11 11 11 10 10 10 9 9 9 8 8 9 9 10 11 12 12 12 12 12 12 12 13 13 13 13 13 14 14
21 20 18 18 18 17 15 15 15 13 12 12 11 10 10 9 9 9 9 8 8 7 7 7 7 7 8 8 9 10 10 11 12 12 12 12 13 13 13 13 14 14 14 14
21 19 19 18 17 16 13 12 12 11 11 9 8 8 8 8 8 7 7 7 7 7 6 5 6 7 7 8 8 8 10 11 12 12 12 13 13 13 14 14 14 15 15 15
20 18 17 17 15 14 13 12 10 9 8 7 6 7 7 7 7 6 7 6 6 5 5 4 5 6 7 7 7 8 10 11 12 13 14 14 14 14 14 15 15 15 15 15
18 17 15 14 13 14 12 10 9 8 7 6 6 6 6 6 5 6 6 6 5 5 4 4 4 5 6 7 8 9 10 11 12 13 14 14 14 14 14 15 16 16 16 16
18 16 14 12 12 12 11 10 8 7 6 6 5 5 5 5 6 6 6 5 4 3 3 3 4 5 7 7 8 9 10 11 12 13 13 14 14 14 15 15 16 16 16 16
17 15 13 11 11 11 11 10 8 7 6 5 5 5 5 4 5 4 4 3 2 2 3 3 4 5 6 7 8 9 10 11 12 12 13 14 14 15 16 17 17 17 17 18
17 16 13 12 12 12 10 8 7 7 6 5 4 4 3 3 3 2 2 2 2 2 3 3 4 5 6 8 9 9 10 11 11 12 13 14 15 16 17 18 18 18 18 19
18 16 14 13 13 11 9 8 7 6 5 5 4 3 2 2 2 1 1 1 2 2 2 3 5 6 7 8 9 10 10 11 12 12 13 15 15 16 17 18 19 19 19 19
17 15 14 13 12 11 9 8 7 6 5 4 4 3 2 2 1 1 1 1 1 2 3 4 5 7 8 8 9 10 11 12 12 13 14 15 16 17 18 19 19 19 20 20
16 15 15 14 12 10 9 8 7 6 5 4 4 3 3 2 1 0 1 1 1 2 3 4 6 7 8 9 9 10 12 12 13 14 15 16 17 19 19 19 20 21 21 21
16 16 15 13 11 10 9 8 7 6 5 4 4 4 3 2 1 1 1 1 2 3 3 5 6 8 9 9 10 11 12 13 14 15 16 17 18 19 20 21 21 22 22 23
16 15 14 13 11 10 10 9 8 6 5 5 5 4 3 2 2 1 1 1 2 3 4 6 7 8 10 10 11 12 13 14 15 16 17 18 19 20 21 21 22 23 24 24
17 15 13 12 12 11 10 9 8 6 6 5 5 4 3 2 2 1 0 2 3 4 5 7 8 9 10 11 12 13 14 15 16 17 17 19 20 21 22 23 23 24 25 25
16 14 14 13 12 11 10 9 8 7 6 6 5 4 3 3 1 0 1 2 4 5 6 7 9 10 11 12 13 14 15 16 17 18 19 20 21 22 24 24 25 26 27 27
15 15 14 13 12 11 10 9 8 7 6 6 5 5 4 2 1 0 1 2 4 5 6 8 9 10 11 13 14 15 16 17 18 19 20 21 22 23 25 25 27 28 29 29
17 16 14 13 12 11 10 9 8 7 6 6 5 5 4 2 1 1 2 3 4 5 6 8 9 11 13 14 15 16 17 18 19 20 22 23 23 24 26 27 28 29 30 31
17 16 15 14 13 12 11 10 9 7 6 6 5 4 4 2 1 2 3 4 5 6 8 9 10 12 13 15 16 17 18 19 20 22 23 24 25 26 27 29 30 30 31 32
Wind_Direction
272 275 278 281 282 283 282 279 276 276 281 282 280 286 289 292 291 289 291 292 292 292 294 297 300 303 305 307 310 311 313 314 315 314 313 314 315 315 316 316 316 315 313 313
271 274 276 278 279 279 279 281 281 279 280 283 286 286 290 292 295 294 293 294 295 294 294 298 301 304 304 306 311 313 315 316 317 316 314 314 316 317 318 319 319 319 318 318
272 274 277 280 282 281 280 280 280 278 279 283 285 289 290 291 291 290 293 296 296 294 295 297 301 303 305 306 313 315 318 320 320 320 318 317 316 316 318 320 324 325 322 319
275 273 272 276 282 283 283 283 281 281 281 283 286 290 290 290 290 291 292 294 295 295 297 299 301 301 306 310 314 317 320 323 324 325 321 317 316 318 321 323 325 326 326 326
269 272 276 277 282 285 286 286 283 283 283 285 287 287 286 288 288 291 292 293 294 294 296 299 299 304 306 309 313 318 323 327 327 326 325 324 324 324 326 328 329 329 332 333
274 272 275 278 283 286 287 285 286 286 288 288 287 288 288 287 287 290 292 293 295 295 297 303 304 307 310 310 312 318 325 329 331 330 331 330 329 328 329 330 333 334 335 335
274 273 275 279 282 285 284 285 286 285 287 288 287 286 287 286 286 289 292 295 297 299 302 305 309 313 315 317 318 320 326 332 336 337 337 336 336 336 335 335 334 336 337 338
272 270 274 278 278 279 281 282 284 284 284 284 281 285 286 288 289 292 293 296 300 301 300 307 314 318 320 324 327 330 334 338 341 342 345 347 346 345 344 342 341 341 343 342
265 271 271 273 273 279 282 281 282 285 286 283 279 284 287 288 289 291 294 297 300 305 304 310 317 319 322 329 336 342 346 348 350 351 352 353 353 350 347 345 344 342 342 340
260 265 269 271 271 273 276 281 286 288 284 280 281 283 283 284 286 289 293 299 304 307 309 314 319 322 326 333 339 345 350 354 355 355 355 355 354 352 351 348 346 345 343 342
259 261 263 267 270 274 275 280 286 286 282 279 280 279 278 281 287 289 291 300 307 311 310 316 323 330 334 335 338 345 351 355 357 357 357 358 356 354 352 352 350 348 347 346
257 257 262 261 264 270 272 275 280 282 284 279 276 276 279 280 284 288 293 298 309 313 315 319 330 333 338 339 342 348 353 359 0 358 357 355 354 353 355 354 351 349 347 345
253 259 257 253 257 264 269 271 272 277 280 275 275 275 276 278 280 287 293 299 307 311 316 322 332 339 343 347 351 356 359 360 1 0 358 355 354 355 357 356 353 349 346 344
246 247 245 246 248 254 262 261 261 267 270 270 273 272 275 279 285 291 295 304 304 303 309 318 333 343 349 353 355 357 359 360 359 360 360 359 359 0 359 358 356 353 351 349
238 238 236 238 239 244 250 252 251 257 261 261 264 265 272 282 288 292 292 298 302 306 313 328 341 344 347 353 357 359 359 359 360 1 1 1 1 1 359 358 358 357 354 352
230 226 225 227 230 235 238 240 244 250 258 261 264 271 277 285 290 290 288 293 304 323 331 339 345 345 347 351 353 355 356 357 356 356 355 357 357 355 355 354 354 354 353 351
223 219 220 221 224 228 231 233 237 243 247 250 255 265 274 286 292 285 287 298 318 332 338 344 343 340 344 347 347 346 348 350 350 350 349 350 349 348 349 350 351 350 350 349
215 214 216 216 218 222 224 227 228 228 231 235 239 246 253 263 269 270 301 323 337 348 353 351 346 346 346 346 347 348 348 350 348 347 347 348 348 346 345 346 346 345 345 344
209 209 206 208 208 212 216 216 217 221 222 224 225 229 224 231 241 298 314 350 18 19 6 359 356 354 355 354 352 348 348 350 349 348 348 345 343 342 342 341 342 341 340 339
204 202 198 197 200 208 210 209 211 212 212 213 212 206 198 187 163 73 90 57 22 9 2 360 357 353 352 353 352 350 349 347 346 345 344 342 340 339 338 338 338 339 339 337
199 197 195 192 199 205 204 203 202 201 200 196 190 186 185 174 152 138 104 17 4 359 353 348 348 348 348 347 346 345 346 346 345 344 342 341 340 340 338 337 337 337 337 336
194 193 191 192 194 194 194 193 193 192 190 189 187 186 182 172 155 136 84 16 353 346 345 346 346 347 348 348 346 345 345 345 343 342 341 341 340 340 338 337 336 335 334 334
189 187 186 186 188 190 188 189 190 189 189 189 185 185 179 168 158 139 21 354 346 345 346 346 346 347 347 347 346 344 343 342 341 341 341 341 340 339 338 336 334 334 333 333
190 187 186 188 188 188 187 187 189 190 191 192 189 190 187 176 166 140 348 349 350 350 350 348 348 348 348 346 344 343 342 341 341 342 341 341 339 338 338 337 336 335 333 331
189 186 186 187 187 187 187 187 188 187 188 189 190 190 185 180 174 179 331 333 339 347 348 348 350 349 348 346 344 343 343 343 342 342 340 339 338 338 337 336 335 334 332 331
186 184 186 187 188 187 185 186 185 183 183 182 180 181 184 188 195 301 325 328 331 336 339 343 346 347 347 347 345 343 343 343 342 341 339 339 339 338 337 336 335 334 333 332
185 186 187 186 185 184 185 186 185 183 180 180 181 184 192 205 223 275 311 326 331 334 336 339 341 342 342 343 343 342 341 341 341 340 339 339 338 337 336 335 335 335 334 333
Height
5815 5815 5816 5816 5816 5815 5814 5813 5812 5811 5809 5807 5806 5805 5803 5801 5800 5799 5798 5796 5795 5793 5791 5789 5787 5785 5782 5780 5777 5774 5771 5767 5764 5760 5757 5753 5750 5746 5743 5740 5737 5734 5732 5729
5811 5812 5811 5811 5811 5811 5810 5808 5807 5806 5803 5802 5801 5799 5798 5797 5795 5794 5793 5791 5790 5788 5786 5785 5783 5780 5778 5776 5773 5770 5767 5763 5760 5756 5752 5749 5746 5743 5740 5737 5734 5731 5728 5726
5806 5807 5806 5806 5807 5806 5804 5803 5802 5800 5799 5797 5796 5795 5794 5792 5791 5790 5788 5787 5785 5784 5782 5780 5779 5776 5774 5772 5769 5766 5763 5759 5755 5752 5749 5746 5743 5740 5737 5734 5731 5728 5726 5723
5801 5802 5801 5803 5801 5801 5799 5798 5797 5795 5793 5792 5792 5790 5789 5788 5786 5785 5784 5783 5781 5780 5778 5776 5774 5772 5770 5768 5766 5763 5760 5756 5752 5749 5746 5743 5740 5737 5734 5731 5728 5726 5723 5720
5797 5796 5796 5797 5797 5796 5795 5794 5792 5790 5789 5788 5786 5785 5784 5783 5782 5781 5780 5779 5777 5776 5774 5773 5771 5768 5766 5765 5763 5760 5757 5753 5749 5746 5743 5740 5737 5735 5732 5729 5726 5724 5721 5719
5791 5791 5791 5793 5792 5790 5790 5788 5787 5785 5785 5784 5783 5781 5780 5779 5778 5778 5776 5775 5773 5772 5770 5768 5767 5766 5764 5762 5760 5757 5754 5751 5747 5744 5741 5738 5736 5733 5731 5728 5725 5723 5720 5717
5786 5785 5784 5787 5786 5786 5786 5785 5783 5781 5781 5780 5779 5777 5777 5775 5775 5774 5773 5772 5770 5769 5768 5766 5765 5763 5762 5760 5757 5755 5752 5749 5746 5743 5740 5737 5734 5732 5730 5727 5725 5722 5719 5717
5781 5781 5783 5782 5781 5781 5781 5779 5778 5777 5777 5776 5774 5773 5773 5772 5772 5771 5770 5769 5768 5766 5765 5764 5762 5761 5760 5758 5755 5753 5750 5748 5744 5741 5739 5736 5734 5731 5729 5726 5724 5721 5719 5716
5776 5777 5777 5777 5777 5777 5776 5775 5774 5773 5772 5771 5770 5769 5769 5769 5769 5769 5768 5767 5766 5764 5763 5762 5761 5759 5758 5756 5754 5752 5749 5747 5744 5741 5738 5736 5734 5731 5728 5726 5723 5721 5718 5716
5770 5771 5772 5772 5772 5771 5771 5771 5770 5769 5768 5767 5767 5766 5766 5766 5766 5766 5766 5765 5764 5762 5761 5760 5759 5758 5756 5755 5753 5751 5749 5746 5744 5741 5738 5736 5733 5731 5728 5725 5722 5720 5717 5715
5765 5766 5766 5768 5768 5767 5767 5767 5766 5765 5764 5764 5763 5763 5764 5764 5764 5764 5764 5763 5762 5761 5760 5759 5758 5757 5756 5754 5752 5751 5748 5746 5743 5741 5738 5736 5733 5731 5728 5725 5722 5719 5717 5714
5760 5761 5762 5762 5763 5763 5763 5763 5763 5762 5761 5761 5761 5761 5761 5762 5762 5762 5762 5762 5761 5760 5759 5758 5758 5757 5755 5754 5752 5750 5748 5746 5743 5741 5738 5736 5733 5731 5728 5725 5722 5719 5717 5714
5754 5755 5755 5757 5758 5759 5759 5759 5760 5760 5759 5759 5759 5759 5760 5760 5760 5761 5761 5760 5759 5759 5758 5758 5757 5756 5755 5753 5751 5750 5748 5745 5743 5741 5738 5736 5733 5731 5728 5725 5722 5719 5716 5713
5748 5749 5751 5753 5755 5756 5756 5757 5757 5758 5757 5757 5758 5758 5758 5759 5759 5759 5759 5759 5758 5758 5757 5757 5756 5755 5754 5753 5751 5749 5747 5745 5743 5741 5739 5736 5733 5731 5728 5725 5722 5719 5716 5713
5743 5745 5747 5749 5751 5753 5754 5755 5756 5756 5756 5756 5757 5757 5757 5758 5758 5758 5757 5757 5757 5756 5756 5756 5755 5755 5754 5752 5751 5749 5747 5745 5743 5741 5739 5736 5733 5731 5728 5725 5722 5719 5716 5713
5739 5741 5743 5745 5748 5750 5752 5753 5754 5754 5755 5755 5756 5756 5756 5756 5756 5756 5756 5756 5756 5755 5755 5755 5755 5754 5753 5752 5750 5749 5747 5745 5743 5741 5739 5736 5733 5731 5728 5725 5722 5719 5716 5712
5735 5738 5740 5742 5746 5748 5749 5751 5752 5753 5753 5754 5754 5755 5755 5755 5755 5755 5755 5755 5755 5755 5755 5755 5754 5753 5752 5751 5750 5748 5746 5745 5743 5740 5738 5736 5733 5730 5727 5724 5721 5718 5715 5711
5731 5734 5737 5740 5743 5746 5748 5749 5750 5751 5752 5753 5753 5754 5754 5754 5755 5755 5755 5755 5755 5754 5754 5754 5754 5753 5752 5750 5749 5748 5746 5744 5742 5740 5737 5735 5732 5729 5727 5724 5721 5717 5714 5710
5728 5732 5735 5738 5741 5744 5745 5747 5748 5749 5750 5751 5752 5753 5753 5754 5754 5754 5754 5754 5755 5755 5755 5754 5753 5753 5751 5750 5748 5747 5745 5743 5741 5739 5737 5734 5731 5728 5725 5722 5719 5716 5712 5709
5727 5730 5733 5736 5739 5742 5744 5746 5747 5748 5750 5751 5751 5752 5753 5754 5754 5754 5754 5755 5755 5755 5754 5754 5753 5752 5751 5749 5748 5746 5744 5742 5740 5738 5736 5733 5730 5727 5724 5721 5717 5714 5710 5706
5726 5729 5731 5735 5738 5741 5743 5745 5746 5748 5749 5750 5751 5752 5753 5754 5754 5755 5755 5755 5755 5755 5754 5754 5753 5752 5751 5749 5747 5745 5744 5742 5739 5737 5734 5732 5729 5725 5722 5719 5715 5712 5708 5704
5725 5728 5732 5735 5738 5740 5743 5744 5746 5747 5749 5750 5751 5752 5753 5754 5754 5755 5755 5755 5755 5755 5754 5754 5753 5751 5750 5748 5746 5745 5743 5740 5738 5736 5733 5730 5727 5724 5720 5716 5713 5709 5705 5701
5725 5728 5731 5734 5737 5740 5742 5744 5746 5747 5748 5750 5751 5752 5753 5754 5754 5755 5755 5755 5755 5754 5754 5753 5752 5751 5749 5747 5746 5744 5742 5739 5737 5734 5731 5728 5725 5721 5717 5714 5710 5706 5702 5697
5724 5727 5731 5734 5737 5739 5741 5743 5745 5746 5748 5749 5750 5751 5752 5753 5754 5755 5755 5755 5755 5754 5754 5753 5752 5750 5748 5747 5745 5743 5740 5738 5735 5732 5729 5726 5723 5719 5715 5711 5707 5702 5698 5693
5724 5727 5730 5733 5736 5738 5741 5743 5744 5746 5747 5748 5750 5751 5752 5753 5754 5755 5755 5755 5755 5754 5753 5752 5751 5749 5748 5746 5744 5742 5739 5736 5733 5730 5727 5724 5720 5716 5712 5708 5703 5699 5694 5689
5724 5727 5730 5733 5736 5738 5740 5742 5744 5745 5747 5748 5750 5751 5752 5753 5754 5754 5755 5754 5754 5754 5753 5752 5750 5749 5747 5745 5743 5740 5737 5735 5732 5728 5725 5721 5718 5714 5709 5705 5700 5695 5690 5685
5723 5726 5730 5733 5735 5738 5740 5742 5744 5745 5747 5748 5749 5751 5752 5753 5753 5754 5754 5754 5754 5753 5752 5751 5749 5748 5746 5744 5741 5739 5736 5733 5730 5726 5723 5719 5715 5710 5706 5701 5696 5691 5686 5680